AirNav   Air Wisconsin pilot careers
 
 1481 users online  

XA99 Flat Bush Airport
Decatur, Texas, USA

GOING TO DECATUR?


FAA INFORMATION EFFECTIVE 28 FEBRUARY 2019

Location

FAA Identifier: XA99
Lat/Long: 33-08-03.7800N / 097-36-25.3800W
33-08.063000N / 097-36.423000W
33.1343833 / -97.6070500
(estimated)
Elevation: 862 ft. / 263 m (estimated)
From city: 7 miles S of DECATUR, TX
Time zone: UTC -6 (UTC -5 during Daylight Saving Time)
Zip code: 76023

Airport Operations

Airport use: Private use. Permission required prior to landing
Activation date: 05/2006
Control tower: no
ARTCC: FORT WORTH CENTER
FSS: FORT WORTH FLIGHT SERVICE STATION
Attendance: UNATNDD
Segmented circle: no

Airport Communications

WX AWOS-3 at LUD (7 nm N): 118.225 (940-627-2365)
WX AWOS-3 at XBP (11 nm W): 119.225 (940-683-8027)
WX ASOS at AFW (17 nm SE): PHONE 817-491-6188

Nearby radio navigation aids

VOR radial/distance  VOR name  Freq  Var
FUZr298/26.1RANGER VORTAC115.7006E
UKWr150/26.4BOWIE VORTAC117.1506E
MQPr030/31.4MILLSAP VORTAC117.7009E
TTTr293/32.6MAVERICK VOR/DME113.1006E
CVEr286/38.3COWBOY VOR/DME116.2006E

Airport Services

Runway Information

Runway 17/35

Dimensions: 2300 x 100 ft. / 701 x 30 m
Surface: turf
RUNWAY 17  RUNWAY 35
Traffic pattern: leftleft

Airport Ownership and Management from official FAA records

Ownership: Privately-owned
Owner: BRIAN TURNER
1111 CR 4380
DECATUR, TX 76234
Phone 817-614-0805
Manager: BRIAN TURNER
1111 CR 4380
DECATUR, TX 76234
Phone 817-614-0805

Additional Remarks

FOR CD CTC REGIONAL APCH AT 972-615-2799.

Instrument Procedures

There are no published instrument procedures at XA99.

Some nearby airports with instrument procedures:

KLUD - Decatur Municipal Airport (7 nm N)
4T2 - Kenneth Copeland Airport (11 nm SE)
KXBP - Bridgeport Municipal Airport (11 nm W)
KAFW - Fort Worth Alliance Airport (17 nm SE)
KDTO - Denton Enterprise Airport (21 nm E)
 
Loc | Ops | Rwys | IFR | FBO | Links
Com | Nav | Svcs | Stats | Notes
Area around XA99 (Flat Bush Airport)
 
Road maps at: MapQuest Bing Google
 
Aerial photo
No photo
 
Sectional chart

 
Airport distance calculator
Flying to Flat Bush Airport? Find the distance to fly.

From to XA99

Sunrise and sunset
Times for 25-Mar-2019
 Local
(UTC-5)
 Zulu
(UTC)
Morning civil twilight07:0412:04
Sunrise07:2912:29
Sunset19:4400:44
Evening civil twilight20:0901:09

Current date and time
Zulu (UTC)  25-Mar-2019 19:32:34
Local (UTC-5)  25-Mar-2019 14:32:34
 
METAR
KLUD 
7nm N 
118.22 940-927-2365
251915Z AUTO 02007KT 350V060 10SM CLR 20/07 A3023 RMK AO2 T02010073
KXBP 
11nm W 
251915Z AUTO 34010G14KT 10SM CLR 20/08 A3026 RMK AO2 T02010081
KAFW 
18nm SE 
251853Z 33013G18KT 10SM FEW250 20/09 A3022 RMK AO2 SLP229 T02000094
TAF
KAFW 
18nm SE 
251724Z 2518/2618 36013KT P6SM SKC FM260100 03007KT P6SM SKC
KFTW 
22nm SE 
251724Z 2518/2618 36013KT P6SM SKC FM260100 03007KT P6SM SKC
NOTAMs
Click for the latest NOTAMs
NOTAMs are issued by the DoD/FAA and will open in a separate window not controlled by AirNav.

 

 
 

Would you like to see your business listed on this page?

 If your business provides an interesting product or service to pilots, flight crews, aircraft, or users of the Flat Bush Airport, you should consider listing it here.  To start the listing process, click on the button below
 
Add a business
 

Other Pages about Flat Bush Airport

Update a link
 
Copyright © AirNav, LLC. All rights reserved. Privacy Policy  Contact